User: anonymous   Login
Location: Unspecified
(0.0000°N, 0.0000°E)
Time: 15:56:11
(UTC+00:00)
Language:

XW-2A - Orbit

View from above orbital plane
View from above orbital plane
View from above satellite
View from above satellite

Ground track
Ground track

The orbit data is extracted from the following two-line orbital elements,

1 40903U 15049E   19140.57889757  .00001954  00000-0  48199-4 0  9990
2 40903  97.3405 183.1749 0011771 247.7273 237.8773 15.41745285205767
Epoch (UTC): 20 May 2019 13:53:36
Eccentricity: 0.0011771
inclination: 97.3405°
perigee height: 433 km
apogee height: 449 km
right ascension of ascending node: 183.1749°
argument of perigee: 247.7273°
revolutions per day: 15.41745285
mean anomaly at epoch: 237.8773°
orbit number at epoch: 20576

The dashed part of the orbit path shows where the satellite is in the earth's shadow,  

DLR